Weather in Beloyarsk

Russia / Yamalo-Nenets Autonomous Okrug     66°52′05″N   68°08′34″E
temp.,
°C
wind,
m/s
gust,
m/s
humid.,
%
clouds,
%
prec.,
mm/h
press.,
hPa
HPBL,
m
27 february, sat
sat2723:00−25ssw23985 0.0 102220
02:00−26sw339817 0.0 102119
05:00−26ssw34979 0.0 102220
08:00−27sw34970 0.0 102121
11:00−25ssw34950 0.0 102261
14:00−23ssw349517 0.0 102280
17:00−24ssw449717 0.0 102226
20:00−25ssw459838 0.0 102134
28 february, sun
sun2823:00−25ssw559849 0.0 102158
02:00−26ssw559862 0.0 102065
05:00−27ssw579761 0.0 102180
08:00−27ssw589719 0.0 102093
11:00−25ssw6109524 0.0 1020233
14:00−24ssw599339 0.0 1020257
17:00−25ssw589455 0.0 1020102
20:00−26ssw589585 0.0 1019108
1 march, mon
mon123:00−27ssw689480 0.0 1020123
02:00−28sw699493 0.0 1018136
05:00−27ssw6109596 0.0 1018154
08:00−27ssw71196100 0.0 1017214
11:00−25sw71395100 0.0 1016342
14:00−23ssw71294100 0.0 1014356
17:00−23ssw71295100 0.0 1012318
20:00−23ssw71295100 0.0 1010247
2 march, tue
tue223:00−22ssw81494100 0.0 1008298
02:00−21ssw81594100 0.0 1006365
05:00−20ssw91492100 0.1 1005414
08:00−19ssw91689100 0.0 1003438
11:00−18ssw101591100 0.2 1004521
14:00−16ssw91488100 0.1 1003602
17:00−14ssw81388100 0.1 1003620
20:00−14s91490100 0.1 1003556
3 march, wed
wed323:00−15s81391100 0.3 1003482
02:00−16s81390100 0.1 1002420
05:00−17s81291100 0.1 1002401
08:00−17s71192100 0.1 1002400
11:00−16s71191100 0.3 1002480
14:00−14s71189100 0.1 1002602
17:00−14s61191100 0.2 1002485
20:00−14s61192100 0.1 1002398